Time,TemperatureF,DewpointF,PressureIn,WindDirection,WindDirectionDegrees,WindSpeedMPH,WindSpeedGustMPH,Humidity,HourlyPrecipIn,Conditions,Clouds,dailyrainin,SoftwareType,DateUTC
2013-07-04 00:01:00,64.8,61.2,29.92,WNW,292,0.0,0.0,88,0.00,,,0.00,WUHU21623XXSP,2013-07-04 04:01:00,
2013-07-04 00:06:00,64.8,61.2,29.92,WNW,292,0.0,0.0,88,0.00,,,0.00,WUHU21623XXSP,2013-07-04 04:06:00,
2013-07-04 00:11:00,64.6,61.0,29.92,WNW,292,0.0,0.0,88,0.00,,,0.00,WUHU21623XXSP,2013-07-04 04:11:00,
2013-07-04 00:16:00,64.6,61.0,29.92,WNW,292,0.0,0.0,88,0.00,,,0.00,WUHU21623XXSP,2013-07-04 04:16:00,
2013-07-04 00:21:00,64.2,60.7,29.92,WNW,292,0.0,0.0,88,0.00,,,0.00,WUHU21623XXSP,2013-07-04 04:21:00,
2013-07-04 00:26:00,64.2,60.7,29.93,WNW,292,0.0,0.0,88,0.00,,,0.00,WUHU21623XXSP,2013-07-04 04:26:00,
2013-07-04 00:31:00,64.0,60.5,29.92,WNW,292,0.0,0.0,88,0.00,,,0.00,WUHU21623XXSP,2013-07-04 04:31:00,
2013-07-04 00:36:00,64.0,60.8,29.92,WNW,292,0.0,0.0,89,0.00,,,0.00,WUHU21623XXSP,2013-07-04 04:36:00,
2013-07-04 00:41:00,63.7,60.5,29.92,WNW,292,0.0,0.0,89,0.00,,,0.00,WUHU21623XXSP,2013-07-04 04:41:00,
2013-07-04 00:46:00,63.7,60.5,29.92,WNW,292,0.0,0.0,89,0.00,,,0.00,WUHU21623XXSP,2013-07-04 04:46:00,
2013-07-04 00:51:00,63.5,60.3,29.92,WNW,292,0.0,0.0,89,0.00,,,0.00,WUHU21623XXSP,2013-07-04 04:51:00,
2013-07-04 00:56:00,63.3,60.1,29.92,WNW,292,0.0,0.0,89,0.00,,,0.00,WUHU21623XXSP,2013-07-04 04:56:00,
2013-07-04 01:01:00,63.1,59.9,29.92,WNW,292,0.0,0.0,89,0.00,,,0.00,WUHU21623XXSP,2013-07-04 05:01:00,
2013-07-04 01:06:00,63.1,59.9,29.92,WNW,292,0.0,0.0,89,0.00,,,0.00,WUHU21623XXSP,2013-07-04 05:06:00,
2013-07-04 01:11:00,63.1,59.9,29.92,WNW,292,0.0,0.0,89,0.00,,,0.00,WUHU21623XXSP,2013-07-04 05:11:00,
2013-07-04 01:16:00,63.0,59.7,29.92,WNW,292,0.0,0.0,89,0.00,,,0.00,WUHU21623XXSP,2013-07-04 05:16:00,
2013-07-04 01:21:00,63.0,59.7,29.92,WNW,292,0.0,0.0,89,0.00,,,0.00,WUHU21623XXSP,2013-07-04 05:21:00,
2013-07-04 01:26:00,62.8,59.6,29.92,WNW,292,0.0,0.0,89,0.00,,,0.00,WUHU21623XXSP,2013-07-04 05:26:00,
2013-07-04 01:31:00,62.8,59.6,29.92,WNW,292,0.0,0.0,89,0.00,,,0.00,WUHU21623XXSP,2013-07-04 05:31:00,
2013-07-04 01:36:00,62.6,59.4,29.93,WNW,292,0.0,0.0,89,0.00,,,0.00,WUHU21623XXSP,2013-07-04 05:36:00,
2013-07-04 01:41:00,62.6,59.4,29.93,WNW,292,0.0,0.0,89,0.00,,,0.00,WUHU21623XXSP,2013-07-04 05:41:00,
2013-07-04 01:46:00,62.4,59.2,29.93,WNW,292,0.0,0.0,89,0.00,,,0.00,WUHU21623XXSP,2013-07-04 05:46:00,
2013-07-04 01:51:00,62.2,59.0,29.92,WNW,292,0.0,0.0,89,0.00,,,0.00,WUHU21623XXSP,2013-07-04 05:51:00,
2013-07-04 01:56:00,62.2,59.0,29.92,WNW,292,0.0,0.0,89,0.00,,,0.00,WUHU21623XXSP,2013-07-04 05:56:00,
2013-07-04 02:01:00,62.1,58.8,29.92,WNW,292,0.0,0.0,89,0.00,,,0.00,WUHU21623XXSP,2013-07-04 06:01:00,
2013-07-04 02:06:00,61.9,58.7,29.92,WNW,292,0.0,0.0,89,0.00,,,0.00,WUHU21623XXSP,2013-07-04 06:06:00,
2013-07-04 02:11:00,61.9,58.7,29.92,WNW,292,0.0,0.0,89,0.00,,,0.00,WUHU21623XXSP,2013-07-04 06:11:00,
2013-07-04 02:16:00,61.7,58.5,29.92,WNW,292,0.0,0.0,89,0.00,,,0.00,WUHU21623XXSP,2013-07-04 06:16:00,
2013-07-04 02:21:00,61.5,58.3,29.92,WNW,292,0.0,0.0,89,0.00,,,0.00,WUHU21623XXSP,2013-07-04 06:21:00,
2013-07-04 02:26:00,61.5,58.3,29.92,WNW,292,0.0,0.0,89,0.00,,,0.00,WUHU21623XXSP,2013-07-04 06:26:00,
2013-07-04 02:31:00,61.5,58.3,29.92,WNW,292,0.0,0.0,89,0.00,,,0.00,WUHU21623XXSP,2013-07-04 06:31:00,
2013-07-04 02:36:00,61.3,58.1,29.92,WNW,292,0.0,0.0,89,0.00,,,0.00,WUHU21623XXSP,2013-07-04 06:36:00,
2013-07-04 02:41:00,61.3,58.1,29.92,WNW,292,0.0,0.0,89,0.00,,,0.00,WUHU21623XXSP,2013-07-04 06:41:00,
2013-07-04 02:46:00,61.3,58.5,29.92,WNW,292,0.0,0.0,90,0.00,,,0.00,WUHU21623XXSP,2013-07-04 06:46:00,
2013-07-04 02:51:00,61.3,58.5,29.92,WNW,292,0.0,0.0,90,0.00,,,0.00,WUHU21623XXSP,2013-07-04 06:51:00,
2013-07-04 02:56:00,61.2,57.9,29.92,WNW,292,0.0,0.0,89,0.00,,,0.00,WUHU21623XXSP,2013-07-04 06:56:00,
2013-07-04 03:01:00,61.0,57.8,29.92,WNW,292,0.0,0.0,89,0.00,,,0.00,WUHU21623XXSP,2013-07-04 07:01:00,
2013-07-04 03:06:00,61.0,57.8,29.91,WNW,292,0.0,0.0,89,0.00,,,0.00,WUHU21623XXSP,2013-07-04 07:06:00,
2013-07-04 03:11:00,60.8,57.8,29.92,WNW,292,0.0,0.0,89,0.00,,,0.00,WUHU21623XXSP,2013-07-04 07:11:00,
2013-07-04 03:16:00,60.6,57.7,29.92,WNW,292,0.0,0.0,90,0.00,,,0.00,WUHU21623XXSP,2013-07-04 07:16:00,
2013-07-04 03:21:00,60.6,57.7,29.92,WNW,292,0.0,0.0,90,0.00,,,0.00,WUHU21623XXSP,2013-07-04 07:21:00,
2013-07-04 03:26:00,60.6,57.7,29.92,WNW,292,0.0,0.0,90,0.00,,,0.00,WUHU21623XXSP,2013-07-04 07:26:00,
2013-07-04 03:31:00,60.4,57.6,29.92,WNW,292,0.0,0.0,90,0.00,,,0.00,WUHU21623XXSP,2013-07-04 07:31:00,
2013-07-04 03:36:00,60.4,57.6,29.92,WNW,292,0.0,0.0,90,0.00,,,0.00,WUHU21623XXSP,2013-07-04 07:36:00,
2013-07-04 03:41:00,60.4,57.6,29.91,WNW,292,0.0,0.0,90,0.00,,,0.00,WUHU21623XXSP,2013-07-04 07:41:00,
2013-07-04 03:46:00,60.4,57.6,29.91,WNW,292,0.0,0.0,90,0.00,,,0.00,WUHU21623XXSP,2013-07-04 07:46:00,
2013-07-04 03:51:00,60.4,57.6,29.91,WNW,292,0.0,0.0,90,0.00,,,0.00,WUHU21623XXSP,2013-07-04 07:51:00,
2013-07-04 03:56:00,60.4,57.6,29.91,WNW,292,0.0,0.0,90,0.00,,,0.00,WUHU21623XXSP,2013-07-04 07:56:00,
2013-07-04 04:01:00,60.3,57.4,29.91,WNW,292,0.0,0.0,90,0.00,,,0.00,WUHU21623XXSP,2013-07-04 08:01:00,
2013-07-04 04:06:00,60.1,57.2,29.91,WNW,292,0.0,0.0,90,0.00,,,0.00,WUHU21623XXSP,2013-07-04 08:06:00,
2013-07-04 04:11:00,60.1,57.2,29.92,WNW,292,0.0,0.0,90,0.00,,,0.00,WUHU21623XXSP,2013-07-04 08:11:00,
2013-07-04 04:16:00,60.1,57.2,29.92,WNW,292,0.0,0.0,90,0.00,,,0.00,WUHU21623XXSP,2013-07-04 08:16:00,
2013-07-04 04:21:00,60.1,57.2,29.92,WNW,292,0.0,0.0,90,0.00,,,0.00,WUHU21623XXSP,2013-07-04 08:21:00,
2013-07-04 04:26:00,60.1,57.2,29.92,WNW,292,0.0,0.0,90,0.00,,,0.00,WUHU21623XXSP,2013-07-04 08:26:00,
2013-07-04 04:31:00,59.9,57.0,29.92,WNW,292,0.0,0.0,90,0.00,,,0.00,WUHU21623XXSP,2013-07-04 08:31:00,
2013-07-04 04:36:00,59.9,57.0,29.93,WNW,292,0.0,0.0,90,0.00,,,0.00,WUHU21623XXSP,2013-07-04 08:36:00,
2013-07-04 04:41:00,59.9,57.0,29.93,WNW,292,0.0,0.0,90,0.00,,,0.00,WUHU21623XXSP,2013-07-04 08:41:00,
2013-07-04 04:46:00,59.9,57.0,29.93,WNW,292,0.0,0.0,90,0.00,,,0.00,WUHU21623XXSP,2013-07-04 08:46:00,
2013-07-04 04:51:00,59.9,57.0,29.93,WNW,292,0.0,0.0,90,0.00,,,0.00,WUHU21623XXSP,2013-07-04 08:51:00,
2013-07-04 04:56:00,59.7,56.8,29.93,WNW,292,0.0,0.0,90,0.00,,,0.00,WUHU21623XXSP,2013-07-04 08:56:00,
2013-07-04 05:01:00,59.7,56.8,29.92,WNW,292,0.0,0.0,90,0.00,,,0.00,WUHU21623XXSP,2013-07-04 09:01:00,
2013-07-04 05:06:00,59.7,56.8,29.92,WNW,292,0.0,0.0,90,0.00,,,0.00,WUHU21623XXSP,2013-07-04 09:06:00,
2013-07-04 05:11:00,59.5,56.7,29.92,WNW,292,0.0,0.0,90,0.00,,,0.00,WUHU21623XXSP,2013-07-04 09:11:00,
2013-07-04 05:16:00,59.5,56.7,29.93,WNW,292,0.0,0.0,90,0.00,,,0.00,WUHU21623XXSP,2013-07-04 09:16:00,
2013-07-04 05:21:00,59.5,56.7,29.93,WNW,292,0.0,0.0,90,0.00,,,0.00,WUHU21623XXSP,2013-07-04 09:21:00,
2013-07-04 05:26:00,59.5,56.7,29.93,WNW,292,0.0,0.0,90,0.00,,,0.00,WUHU21623XXSP,2013-07-04 09:26:00,
2013-07-04 05:31:00,59.5,56.7,29.93,WNW,292,0.0,0.0,90,0.00,,,0.00,WUHU21623XXSP,2013-07-04 09:31:00,
2013-07-04 05:36:00,59.4,56.5,29.93,WNW,292,0.0,0.0,90,0.00,,,0.00,WUHU21623XXSP,2013-07-04 09:36:00,
2013-07-04 05:41:00,59.4,56.5,29.93,WNW,292,0.0,0.0,90,0.00,,,0.00,WUHU21623XXSP,2013-07-04 09:41:00,
2013-07-04 05:46:00,59.4,56.5,29.93,WNW,292,0.0,0.0,90,0.00,,,0.00,WUHU21623XXSP,2013-07-04 09:46:00,
2013-07-04 05:51:00,59.2,56.3,29.94,WNW,292,0.0,0.0,90,0.00,,,0.00,WUHU21623XXSP,2013-07-04 09:51:00,
2013-07-04 05:56:00,59.2,56.3,29.93,WNW,292,0.0,0.0,90,0.00,,,0.00,WUHU21623XXSP,2013-07-04 09:56:00,
2013-07-04 06:01:00,59.2,56.3,29.94,WNW,292,0.0,0.0,90,0.00,,,0.00,WUHU21623XXSP,2013-07-04 10:01:00,
2013-07-04 06:06:00,59.2,56.3,29.94,WNW,292,0.0,0.0,90,0.00,,,0.00,WUHU21623XXSP,2013-07-04 10:06:00,
2013-07-04 06:11:00,59.2,56.6,29.94,WNW,292,0.0,0.0,91,0.00,,,0.00,WUHU21623XXSP,2013-07-04 10:11:00,
2013-07-04 06:16:00,59.2,56.6,29.94,WNW,292,0.0,0.0,91,0.00,,,0.00,WUHU21623XXSP,2013-07-04 10:16:00,
2013-07-04 06:21:00,59.0,56.4,29.94,WNW,292,0.0,0.0,91,0.00,,,0.00,WUHU21623XXSP,2013-07-04 10:21:00,
2013-07-04 06:26:00,59.0,56.4,29.94,WNW,292,0.0,0.0,91,0.00,,,0.00,WUHU21623XXSP,2013-07-04 10:26:00,
2013-07-04 06:31:00,58.8,56.2,29.95,WNW,292,0.0,0.0,91,0.00,,,0.00,WUHU21623XXSP,2013-07-04 10:31:00,
2013-07-04 06:36:00,58.8,56.2,29.94,WNW,292,0.0,0.0,91,0.00,,,0.00,WUHU21623XXSP,2013-07-04 10:36:00,
2013-07-04 06:41:00,58.8,56.2,29.95,WNW,292,0.0,0.0,91,0.00,,,0.00,WUHU21623XXSP,2013-07-04 10:41:00,
2013-07-04 06:46:00,58.8,56.2,29.95,WNW,292,0.0,0.0,91,0.00,,,0.00,WUHU21623XXSP,2013-07-04 10:46:00,
2013-07-04 06:51:00,58.8,56.2,29.95,WNW,292,0.0,0.0,91,0.00,,,0.00,WUHU21623XXSP,2013-07-04 10:51:00,
2013-07-04 06:56:00,58.8,56.2,29.95,WNW,292,0.0,0.0,91,0.00,,,0.00,WUHU21623XXSP,2013-07-04 10:56:00,
2013-07-04 07:01:00,58.8,56.2,29.95,WNW,292,0.0,0.0,91,0.00,,,0.00,WUHU21623XXSP,2013-07-04 11:01:00,
2013-07-04 07:06:00,58.8,56.2,29.95,WNW,292,0.0,0.0,91,0.00,,,0.00,WUHU21623XXSP,2013-07-04 11:06:00,
2013-07-04 07:11:00,58.8,56.2,29.95,WNW,292,0.0,0.0,91,0.00,,,0.00,WUHU21623XXSP,2013-07-04 11:11:00,
2013-07-04 07:16:00,58.8,56.2,29.95,WNW,292,0.0,0.0,91,0.00,,,0.00,WUHU21623XXSP,2013-07-04 11:16:00,
2013-07-04 07:21:00,58.8,56.2,29.95,WNW,292,0.0,0.0,91,0.00,,,0.00,WUHU21623XXSP,2013-07-04 11:21:00,
2013-07-04 07:26:00,58.8,56.2,29.95,WNW,292,0.0,0.0,91,0.00,,,0.00,WUHU21623XXSP,2013-07-04 11:26:00,
2013-07-04 07:31:00,58.8,56.2,29.95,WNW,292,0.0,0.0,91,0.00,,,0.00,WUHU21623XXSP,2013-07-04 11:31:00,
2013-07-04 07:36:00,58.8,56.2,29.95,WNW,292,0.0,0.0,91,0.00,,,0.00,WUHU21623XXSP,2013-07-04 11:36:00,
2013-07-04 07:41:00,58.8,56.2,29.95,WNW,292,0.0,0.0,91,0.00,,,0.00,WUHU21623XXSP,2013-07-04 11:41:00,
2013-07-04 07:46:00,58.8,56.2,29.95,WNW,292,0.0,0.0,91,0.00,,,0.00,WUHU21623XXSP,2013-07-04 11:46:00,
2013-07-04 07:51:00,58.8,56.2,29.96,WNW,292,0.0,0.0,91,0.00,,,0.00,WUHU21623XXSP,2013-07-04 11:51:00,
2013-07-04 07:56:00,58.8,56.2,29.95,WNW,292,0.0,0.0,91,0.00,,,0.00,WUHU21623XXSP,2013-07-04 11:56:00,
2013-07-04 08:01:00,59.0,56.4,29.96,WNW,292,0.0,0.0,91,0.00,,,0.00,WUHU21623XXSP,2013-07-04 12:01:00,
2013-07-04 08:06:00,59.4,56.8,29.96,WNW,292,0.0,0.0,91,0.00,,,0.00,WUHU21623XXSP,2013-07-04 12:06:00,
2013-07-04 08:11:00,59.5,56.9,29.96,WSW,247,0.0,0.0,91,0.00,,,0.00,WUHU21623XXSP,2013-07-04 12:11:00,
2013-07-04 08:16:00,59.7,57.1,29.96,SSW,202,1.4,1.6,91,0.00,,,0.00,WUHU21623XXSP,2013-07-04 12:16:00,
2013-07-04 08:21:00,60.1,57.8,29.96,East,90,0.0,1.6,92,0.00,,,0.00,WUHU21623XXSP,2013-07-04 12:21:00,
2013-07-04 08:26:00,60.6,58.3,29.96,SW,225,0.0,1.3,92,0.00,,,0.00,WUHU21623XXSP,2013-07-04 12:26:00,
2013-07-04 08:31:00,61.0,58.7,29.97,SSW,202,1.7,2.7,92,0.00,,,0.00,WUHU21623XXSP,2013-07-04 12:31:00,
2013-07-04 08:36:00,61.3,59.0,29.97,SW,221,1.3,2.7,92,0.00,,,0.00,WUHU21623XXSP,2013-07-04 12:36:00,
2013-07-04 08:41:00,61.7,59.4,29.97,South,180,0.9,2.0,92,0.00,,,0.00,WUHU21623XXSP,2013-07-04 12:41:00,
2013-07-04 08:46:00,62.4,60.1,29.97,SSW,202,2.0,3.1,92,0.00,,,0.00,WUHU21623XXSP,2013-07-04 12:46:00,
2013-07-04 08:51:00,62.8,60.5,29.97,ESE,112,0.0,3.1,92,0.00,,,0.00,WUHU21623XXSP,2013-07-04 12:51:00,
2013-07-04 08:56:00,63.1,60.8,29.97,South,180,3.1,3.1,92,0.00,,,0.00,WUHU21623XXSP,2013-07-04 12:56:00,
2013-07-04 09:01:00,63.3,61.0,29.97,SSW,202,3.1,3.1,92,0.00,,,0.00,WUHU21623XXSP,2013-07-04 13:01:00,
2013-07-04 09:06:00,63.7,61.4,29.97,South,180,0.0,3.8,92,0.00,,,0.00,WUHU21623XXSP,2013-07-04 13:06:00,
2013-07-04 09:11:00,64.0,61.7,29.97,SE,135,0.0,3.8,92,0.00,,,0.00,WUHU21623XXSP,2013-07-04 13:11:00,
2013-07-04 09:16:00,64.2,61.6,29.97,South,180,0.0,3.1,91,0.00,,,0.00,WUHU21623XXSP,2013-07-04 13:16:00,
2013-07-04 09:21:00,64.6,62.0,29.96,SSW,207,2.8,3.6,91,0.00,,,0.00,WUHU21623XXSP,2013-07-04 13:21:00,
2013-07-04 09:26:00,64.8,62.1,29.97,SSW,202,2.5,3.6,91,0.00,,,0.00,WUHU21623XXSP,2013-07-04 13:26:00,
2013-07-04 09:31:00,65.1,62.2,29.97,South,180,0.9,3.1,90,0.00,,,0.00,WUHU21623XXSP,2013-07-04 13:31:00,
2013-07-04 09:36:00,65.3,62.3,29.97,SW,225,0.0,2.7,90,0.00,,,0.00,WUHU21623XXSP,2013-07-04 13:36:00,
2013-07-04 09:41:00,65.5,62.5,29.97,SSW,202,1.1,1.6,90,0.00,,,0.00,WUHU21623XXSP,2013-07-04 13:41:00,
2013-07-04 09:46:00,65.8,62.5,29.97,South,180,0.0,3.4,89,0.00,,,0.00,WUHU21623XXSP,2013-07-04 13:46:00,
2013-07-04 09:51:00,66.4,62.7,29.97,SSW,202,0.0,4.9,88,0.00,,,0.00,WUHU21623XXSP,2013-07-04 13:51:00,
2013-07-04 09:56:00,66.6,62.5,29.97,SSW,207,1.8,4.9,87,0.00,,,0.00,WUHU21623XXSP,2013-07-04 13:56:00,
2013-07-04 10:01:00,66.7,62.7,29.96,SSW,202,0.9,3.4,87,0.00,,,0.00,WUHU21623XXSP,2013-07-04 14:01:00,
2013-07-04 10:06:00,66.9,62.6,29.97,SE,135,0.0,2.5,86,0.00,,,0.00,WUHU21623XXSP,2013-07-04 14:06:00,
2013-07-04 10:11:00,67.3,62.9,29.97,East,90,0.0,0.0,86,0.00,,,0.00,WUHU21623XXSP,2013-07-04 14:11:00,
2013-07-04 10:16:00,67.6,63.0,29.97,WSW,247,0.0,1.1,85,0.00,,,0.00,WUHU21623XXSP,2013-07-04 14:16:00,
2013-07-04 10:21:00,67.8,62.5,29.97,SSW,202,2.0,5.6,83,0.00,,,0.00,WUHU21623XXSP,2013-07-04 14:21:00,
2013-07-04 10:26:00,68.2,62.8,29.97,SSW,202,0.9,5.6,83,0.00,,,0.00,WUHU21623XXSP,2013-07-04 14:26:00,
2013-07-04 10:31:00,68.5,62.8,29.96,East,90,0.0,4.9,82,0.00,,,0.00,WUHU21623XXSP,2013-07-04 14:31:00,
2013-07-04 10:36:00,68.7,62.7,29.96,NNW,337,0.9,2.5,81,0.00,,,0.00,WUHU21623XXSP,2013-07-04 14:36:00,
2013-07-04 10:41:00,69.1,62.7,29.96,West,270,0.0,0.9,80,0.00,,,0.00,WUHU21623XXSP,2013-07-04 14:41:00,
2013-07-04 10:46:00,69.4,63.0,29.96,SE,135,1.1,1.8,80,0.00,,,0.00,WUHU21623XXSP,2013-07-04 14:46:00,
2013-07-04 10:51:00,69.6,62.8,29.96,SSW,202,0.9,2.9,79,0.00,,,0.00,WUHU21623XXSP,2013-07-04 14:51:00,
2013-07-04 10:56:00,70.0,63.1,29.96,SSW,196,1.4,2.9,79,0.00,,,0.00,WUHU21623XXSP,2013-07-04 14:56:00,
2013-07-04 11:01:00,70.3,62.7,29.96,SSW,202,1.5,5.1,77,0.00,,,0.00,WUHU21623XXSP,2013-07-04 15:01:00,
2013-07-04 11:06:00,70.5,62.5,29.97,WNW,296,0.9,5.1,76,0.00,,,0.00,WUHU21623XXSP,2013-07-04 15:06:00,
2013-07-04 11:11:00,70.7,62.7,29.97,SW,225,1.7,2.7,76,0.00,,,0.00,WUHU21623XXSP,2013-07-04 15:11:00,
2013-07-04 11:16:00,71.1,62.3,29.97,WNW,292,0.0,2.7,74,0.00,,,0.00,WUHU21623XXSP,2013-07-04 15:16:00,
2013-07-04 11:21:00,71.4,63.0,29.97,NW,315,0.0,2.2,75,0.00,,,0.00,WUHU21623XXSP,2013-07-04 15:21:00,
2013-07-04 11:26:00,71.4,62.3,29.97,SSW,202,2.9,4.3,73,0.00,,,0.00,WUHU21623XXSP,2013-07-04 15:26:00,
2013-07-04 11:31:00,71.8,62.7,29.97,SSW,210,2.5,4.7,73,0.00,,,0.00,WUHU21623XXSP,2013-07-04 15:31:00,
2013-07-04 11:36:00,72.1,63.0,29.96,SSW,201,1.3,4.7,73,0.00,,,0.00,WUHU21623XXSP,2013-07-04 15:36:00,
2013-07-04 11:41:00,72.5,62.6,29.96,SSW,202,3.4,4.7,71,0.00,,,0.00,WUHU21623XXSP,2013-07-04 15:41:00,
2013-07-04 11:46:00,73.0,62.8,29.96,SSW,198,2.7,5.4,70,0.00,,,0.00,WUHU21623XXSP,2013-07-04 15:46:00,
2013-07-04 11:51:00,73.2,63.3,29.96,WSW,247,0.0,5.4,71,0.00,,,0.00,WUHU21623XXSP,2013-07-04 15:51:00,
2013-07-04 11:56:00,73.6,63.3,29.96,SSW,203,2.6,4.5,70,0.00,,,0.00,WUHU21623XXSP,2013-07-04 15:56:00,
2013-07-04 12:01:00,73.9,63.6,29.96,WSW,247,0.0,4.5,70,0.00,,,0.00,WUHU21623XXSP,2013-07-04 16:01:00,
2013-07-04 12:06:00,74.1,63.3,29.96,SSW,205,2.7,5.4,69,0.00,,,0.00,WUHU21623XXSP,2013-07-04 16:06:00,
2013-07-04 12:11:00,74.5,63.2,29.96,South,173,1.6,5.4,68,0.00,,,0.00,WUHU21623XXSP,2013-07-04 16:11:00,
2013-07-04 12:16:00,74.5,62.8,29.96,SSW,207,2.1,3.8,67,0.00,,,0.00,WUHU21623XXSP,2013-07-04 16:16:00,
2013-07-04 12:21:00,74.8,63.1,29.97,SSW,195,1.2,3.8,67,0.00,,,0.00,WUHU21623XXSP,2013-07-04 16:21:00,
2013-07-04 12:26:00,75.0,62.4,29.96,SSW,199,2.3,5.8,65,0.00,,,0.00,WUHU21623XXSP,2013-07-04 16:26:00,
2013-07-04 12:31:00,75.6,62.5,29.96,SW,230,2.7,5.8,64,0.00,,,0.00,WUHU21623XXSP,2013-07-04 16:31:00,
2013-07-04 12:36:00,75.9,63.3,29.96,ESE,112,0.7,4.3,65,0.00,,,0.00,WUHU21623XXSP,2013-07-04 16:36:00,
2013-07-04 12:41:00,76.3,62.7,29.96,SW,223,2.0,7.2,63,0.00,,,0.00,WUHU21623XXSP,2013-07-04 16:41:00,
2013-07-04 12:46:00,76.6,63.5,29.96,SSW,194,2.4,7.2,64,0.00,,,0.00,WUHU21623XXSP,2013-07-04 16:46:00,
2013-07-04 12:51:00,76.8,62.8,29.97,NE,45,0.7,5.8,62,0.00,,,0.00,WUHU21623XXSP,2013-07-04 16:51:00,
2013-07-04 12:56:00,76.8,63.2,29.96,SSW,202,4.7,4.9,63,0.00,,,0.00,WUHU21623XXSP,2013-07-04 16:56:00,
2013-07-04 13:01:00,77.2,63.6,29.96,South,188,3.2,5.1,63,0.00,,,0.00,WUHU21623XXSP,2013-07-04 17:01:00,
2013-07-04 13:06:00,77.4,63.3,29.97,South,189,5.6,8.5,62,0.00,,,0.00,WUHU21623XXSP,2013-07-04 17:06:00,
2013-07-04 13:11:00,77.5,63.5,29.96,West,277,0.9,8.5,62,0.00,,,0.00,WUHU21623XXSP,2013-07-04 17:11:00,
2013-07-04 13:16:00,77.5,63.5,29.96,NW,315,1.0,5.6,62,0.00,,,0.00,WUHU21623XXSP,2013-07-04 17:16:00,
2013-07-04 13:21:00,77.4,64.2,29.96,WSW,247,0.0,5.6,64,0.00,,,0.00,WUHU21623XXSP,2013-07-04 17:21:00,
2013-07-04 13:26:00,77.4,64.2,29.96,SSW,205,2.2,4.5,64,0.00,,,0.00,WUHU21623XXSP,2013-07-04 17:26:00,
2013-07-04 13:31:00,77.2,64.0,29.96,WNW,292,0.0,4.5,64,0.00,,,0.00,WUHU21623XXSP,2013-07-04 17:31:00,
2013-07-04 13:36:00,77.2,64.0,29.96,SW,225,2.9,4.9,64,0.00,,,0.00,WUHU21623XXSP,2013-07-04 17:36:00,
2013-07-04 13:41:00,77.2,64.0,29.96,SE,135,0.0,4.9,64,0.00,,,0.00,WUHU21623XXSP,2013-07-04 17:41:00,
2013-07-04 13:46:00,77.2,64.5,29.96,SSW,202,0.7,3.8,65,0.00,,,0.00,WUHU21623XXSP,2013-07-04 17:46:00,
2013-07-04 13:51:00,77.2,64.5,29.96,SE,135,2.5,3.8,65,0.00,,,0.00,WUHU21623XXSP,2013-07-04 17:51:00,
2013-07-04 13:56:00,77.0,64.8,29.96,SW,229,1.7,7.2,66,0.00,,,0.00,WUHU21623XXSP,2013-07-04 17:56:00,
2013-07-04 14:01:00,77.2,64.0,29.95,SSW,211,3.6,8.1,64,0.00,,,0.00,WUHU21623XXSP,2013-07-04 18:01:00,
2013-07-04 14:06:00,77.2,64.5,29.95,SSW,206,2.4,8.1,65,0.00,,,0.00,WUHU21623XXSP,2013-07-04 18:06:00,
2013-07-04 14:11:00,77.4,64.2,29.95,SW,229,2.2,4.5,64,0.00,,,0.00,WUHU21623XXSP,2013-07-04 18:11:00,
2013-07-04 14:16:00,77.2,64.9,29.95,SW,225,1.1,4.5,66,0.00,,,0.00,WUHU21623XXSP,2013-07-04 18:16:00,
2013-07-04 14:21:00,77.2,64.9,29.95,WSW,247,0.0,4.5,66,0.00,,,0.00,WUHU21623XXSP,2013-07-04 18:21:00,
2013-07-04 14:26:00,77.2,64.5,29.95,SSW,213,1.8,4.7,65,0.00,,,0.00,WUHU21623XXSP,2013-07-04 18:26:00,
2013-07-04 14:31:00,77.2,64.0,29.95,South,180,2.5,6.9,64,0.00,,,0.00,WUHU21623XXSP,2013-07-04 18:31:00,
2013-07-04 14:36:00,77.0,63.9,29.95,SSE,157,0.7,6.9,64,0.00,,,0.00,WUHU21623XXSP,2013-07-04 18:36:00,
2013-07-04 14:41:00,77.2,64.5,29.95,SSW,202,0.9,3.8,65,0.00,,,0.00,WUHU21623XXSP,2013-07-04 18:41:00,
2013-07-04 14:46:00,77.2,64.5,29.95,SSW,206,1.8,3.8,65,0.00,,,0.00,WUHU21623XXSP,2013-07-04 18:46:00,
2013-07-04 14:51:00,77.2,64.9,29.95,South,172,1.4,3.4,66,0.00,,,0.00,WUHU21623XXSP,2013-07-04 18:51:00,
2013-07-04 14:56:00,77.2,64.9,29.95,SSE,157,0.9,3.4,66,0.00,,,0.00,WUHU21623XXSP,2013-07-04 18:56:00,
2013-07-04 15:01:00,77.0,65.2,29.95,SW,232,2.1,3.1,67,0.00,,,0.00,WUHU21623XXSP,2013-07-04 19:01:00,
2013-07-04 15:06:00,77.2,64.9,29.95,WSW,250,1.0,3.1,66,0.00,,,0.00,WUHU21623XXSP,2013-07-04 19:06:00,
2013-07-04 15:11:00,77.2,65.8,29.94,SE,128,1.1,2.9,68,0.00,,,0.00,WUHU21623XXSP,2013-07-04 19:11:00,
2013-07-04 15:16:00,77.2,64.9,29.94,SSW,202,3.4,4.0,66,0.00,,,0.00,WUHU21623XXSP,2013-07-04 19:16:00,
2013-07-04 15:21:00,77.4,65.1,29.94,ENE,67,0.7,4.0,66,0.00,,,0.00,WUHU21623XXSP,2013-07-04 19:21:00,
2013-07-04 15:26:00,77.5,65.7,29.94,South,181,1.3,4.0,67,0.00,,,0.00,WUHU21623XXSP,2013-07-04 19:26:00,
2013-07-04 15:31:00,77.5,65.7,29.94,SE,142,0.8,2.2,67,0.00,,,0.00,WUHU21623XXSP,2013-07-04 19:31:00,
2013-07-04 15:36:00,77.5,65.7,29.94,South,180,0.0,0.9,67,0.00,,,0.00,WUHU21623XXSP,2013-07-04 19:36:00,
2013-07-04 15:41:00,77.4,65.5,29.94,SSW,202,3.8,3.8,67,0.00,,,0.00,WUHU21623XXSP,2013-07-04 19:41:00,
2013-07-04 15:46:00,77.5,64.8,29.94,SSW,195,2.4,4.5,65,0.00,,,0.00,WUHU21623XXSP,2013-07-04 19:46:00,
2013-07-04 15:51:00,77.4,64.2,29.94,South,180,1.3,4.5,64,0.00,,,0.00,WUHU21623XXSP,2013-07-04 19:51:00,
2013-07-04 15:56:00,77.5,64.8,29.94,SE,145,1.0,3.4,65,0.00,,,0.00,WUHU21623XXSP,2013-07-04 19:56:00,
2013-07-04 16:01:00,77.5,64.8,29.94,SSW,206,1.5,3.8,65,0.00,,,0.00,WUHU21623XXSP,2013-07-04 20:01:00,
2013-07-04 16:06:00,77.5,65.3,29.94,SSE,157,1.9,4.7,66,0.00,,,0.00,WUHU21623XXSP,2013-07-04 20:06:00,
2013-07-04 16:11:00,77.5,65.3,29.94,SSW,202,2.3,6.7,66,0.00,,,0.00,WUHU21623XXSP,2013-07-04 20:11:00,
2013-07-04 16:16:00,77.5,65.3,29.94,WSW,247,6.3,6.7,66,0.00,,,0.00,WUHU21623XXSP,2013-07-04 20:16:00,
2013-07-04 16:21:00,77.5,65.3,29.94,SW,225,0.9,6.3,66,0.00,,,0.00,WUHU21623XXSP,2013-07-04 20:21:00,
2013-07-04 16:26:00,77.5,65.7,29.94,SW,225,2.6,4.3,67,0.00,,,0.00,WUHU21623XXSP,2013-07-04 20:26:00,
2013-07-04 16:31:00,77.5,65.3,29.93,SSE,152,1.4,5.8,66,0.00,,,0.00,WUHU21623XXSP,2013-07-04 20:31:00,
2013-07-04 16:36:00,77.5,65.3,29.93,SSW,203,1.2,5.8,66,0.00,,,0.00,WUHU21623XXSP,2013-07-04 20:36:00,
2013-07-04 16:41:00,77.4,65.1,29.93,SW,223,1.9,3.8,66,0.00,,,0.00,WUHU21623XXSP,2013-07-04 20:41:00,
2013-07-04 16:46:00,77.4,65.5,29.93,WSW,247,3.6,3.8,67,0.00,,,0.00,WUHU21623XXSP,2013-07-04 20:46:00,
2013-07-04 16:51:00,77.2,64.9,29.93,SE,127,1.5,3.6,66,0.00,,,0.00,WUHU21623XXSP,2013-07-04 20:51:00,
2013-07-04 16:56:00,77.0,65.7,29.93,ESE,112,0.0,3.1,68,0.00,,,0.00,WUHU21623XXSP,2013-07-04 20:56:00,
2013-07-04 17:01:00,76.8,65.0,29.93,SW,225,2.9,2.9,67,0.00,,,0.00,WUHU21623XXSP,2013-07-04 21:01:00,
2013-07-04 17:06:00,76.8,65.5,29.93,SSW,202,1.1,3.1,68,0.00,,,0.00,WUHU21623XXSP,2013-07-04 21:06:00,
2013-07-04 17:11:00,76.8,65.0,29.94,SE,135,0.0,3.1,67,0.00,,,0.00,WUHU21623XXSP,2013-07-04 21:11:00,
2013-07-04 17:16:00,76.8,65.5,29.93,South,179,0.9,2.2,68,0.00,,,0.00,WUHU21623XXSP,2013-07-04 21:16:00,
2013-07-04 17:21:00,76.6,65.3,29.93,WSW,247,1.1,1.3,68,0.00,,,0.00,WUHU21623XXSP,2013-07-04 21:21:00,
2013-07-04 17:26:00,76.6,65.8,29.93,SSW,202,0.9,1.3,69,0.00,,,0.00,WUHU21623XXSP,2013-07-04 21:26:00,
2013-07-04 17:31:00,76.6,65.8,29.92,SW,225,0.0,1.1,69,0.00,,,0.00,WUHU21623XXSP,2013-07-04 21:31:00,
2013-07-04 17:36:00,76.5,65.6,29.93,SE,135,0.0,1.3,69,0.00,,,0.00,WUHU21623XXSP,2013-07-04 21:36:00,
2013-07-04 17:41:00,76.3,65.4,29.93,ESE,112,0.0,1.3,69,0.00,,,0.00,WUHU21623XXSP,2013-07-04 21:41:00,
2013-07-04 17:46:00,76.1,65.7,29.93,SE,135,0.0,0.9,70,0.00,,,0.00,WUHU21623XXSP,2013-07-04 21:46:00,
2013-07-04 17:51:00,75.9,65.9,29.92,SE,135,0.0,0.0,71,0.00,,,0.00,WUHU21623XXSP,2013-07-04 21:51:00,
2013-07-04 17:56:00,75.7,66.1,29.92,ESE,112,0.0,0.0,72,0.00,,,0.00,WUHU21623XXSP,2013-07-04 21:56:00,
2013-07-04 18:01:00,75.4,65.7,29.92,ESE,121,0.9,1.1,72,0.00,,,0.00,WUHU21623XXSP,2013-07-04 22:01:00,
2013-07-04 18:06:00,75.4,65.7,29.92,South,180,0.9,1.1,72,0.00,,,0.00,WUHU21623XXSP,2013-07-04 22:06:00,
2013-07-04 18:11:00,75.2,65.2,29.92,South,191,1.6,1.6,71,0.00,,,0.00,WUHU21623XXSP,2013-07-04 22:11:00,
2013-07-04 18:16:00,75.0,65.4,29.92,SSW,202,0.0,1.6,72,0.00,,,0.00,WUHU21623XXSP,2013-07-04 22:16:00,
2013-07-04 18:21:00,75.0,65.4,29.92,SSW,202,0.0,1.1,72,0.00,,,0.00,WUHU21623XXSP,2013-07-04 22:21:00,
2013-07-04 18:26:00,74.8,65.6,29.92,SSW,202,0.0,0.0,73,0.00,,,0.00,WUHU21623XXSP,2013-07-04 22:26:00,
2013-07-04 18:31:00,74.8,65.6,29.92,SSW,202,0.0,1.3,73,0.00,,,0.00,WUHU21623XXSP,2013-07-04 22:31:00,
2013-07-04 18:36:00,74.8,65.6,29.91,SSE,157,0.0,1.3,73,0.00,,,0.00,WUHU21623XXSP,2013-07-04 22:36:00,
2013-07-04 18:41:00,74.8,65.6,29.91,SSE,157,0.0,1.1,73,0.00,,,0.00,WUHU21623XXSP,2013-07-04 22:41:00,
2013-07-04 18:46:00,74.7,65.8,29.92,WSW,247,0.0,0.0,74,0.00,,,0.00,WUHU21623XXSP,2013-07-04 22:46:00,
2013-07-04 18:51:00,74.5,65.7,29.92,WSW,247,0.0,0.0,74,0.00,,,0.00,WUHU21623XXSP,2013-07-04 22:51:00,
2013-07-04 18:56:00,74.5,65.7,29.92,SSE,157,0.0,0.0,74,0.00,,,0.00,WUHU21623XXSP,2013-07-04 22:56:00,
2013-07-04 19:01:00,74.5,65.7,29.92,SSW,210,1.3,1.6,74,0.00,,,0.00,WUHU21623XXSP,2013-07-04 23:01:00,
2013-07-04 19:06:00,74.5,65.7,29.92,SW,214,1.6,1.6,74,0.00,,,0.00,WUHU21623XXSP,2013-07-04 23:06:00,
2013-07-04 19:11:00,74.3,65.9,29.92,SW,225,0.0,1.6,75,0.00,,,0.00,WUHU21623XXSP,2013-07-04 23:11:00,
2013-07-04 19:16:00,74.1,65.7,29.92,SW,225,0.0,0.0,75,0.00,,,0.00,WUHU21623XXSP,2013-07-04 23:16:00,
2013-07-04 19:21:00,74.1,65.7,29.92,SSW,212,1.4,2.5,75,0.00,,,0.00,WUHU21623XXSP,2013-07-04 23:21:00,
2013-07-04 19:26:00,74.1,65.7,29.92,SSW,202,0.0,2.5,75,0.00,,,0.00,WUHU21623XXSP,2013-07-04 23:26:00,
2013-07-04 19:31:00,74.1,66.1,29.91,SSW,202,0.0,0.7,76,0.00,,,0.00,WUHU21623XXSP,2013-07-04 23:31:00,
2013-07-04 19:36:00,74.1,66.1,29.92,SSW,202,0.0,0.0,76,0.00,,,0.00,WUHU21623XXSP,2013-07-04 23:36:00,
2013-07-04 19:41:00,74.1,66.1,29.92,SSW,202,0.0,0.0,76,0.00,,,0.00,WUHU21623XXSP,2013-07-04 23:41:00,
2013-07-04 19:46:00,73.9,66.3,29.92,SSW,202,0.8,0.9,77,0.00,,,0.00,WUHU21623XXSP,2013-07-04 23:46:00,
2013-07-04 19:51:00,73.9,66.3,29.92,SSW,202,0.0,0.9,77,0.00,,,0.00,WUHU21623XXSP,2013-07-04 23:51:00,
2013-07-04 19:56:00,73.9,66.3,29.92,WSW,247,0.0,0.7,77,0.00,,,0.00,WUHU21623XXSP,2013-07-04 23:56:00,
2013-07-04 20:01:00,73.8,66.5,29.92,WSW,247,0.0,0.0,78,0.00,,,0.00,WUHU21623XXSP,2013-07-05 00:01:00,
2013-07-04 20:06:00,73.8,66.5,29.92,WNW,292,0.0,2.2,78,0.00,,,0.00,WUHU21623XXSP,2013-07-05 00:06:00,
2013-07-04 20:11:00,73.4,66.2,29.92,WSW,247,0.0,2.2,78,0.00,,,0.00,WUHU21623XXSP,2013-07-05 00:11:00,
2013-07-04 20:16:00,73.2,66.4,29.92,WSW,247,0.0,0.0,79,0.00,,,0.00,WUHU21623XXSP,2013-07-05 00:16:00,
2013-07-04 20:21:00,73.0,66.2,29.92,WSW,247,0.0,0.0,79,0.00,,,0.00,WUHU21623XXSP,2013-07-05 00:21:00,
2013-07-04 20:26:00,73.0,66.2,29.92,WSW,247,0.0,0.0,79,0.00,,,0.00,WUHU21623XXSP,2013-07-05 00:26:00,
2013-07-04 20:31:00,72.7,65.8,29.92,WSW,247,0.0,0.0,79,0.00,,,0.00,WUHU21623XXSP,2013-07-05 00:31:00,
2013-07-04 20:36:00,72.5,66.0,29.92,WSW,247,0.0,0.0,80,0.00,,,0.00,WUHU21623XXSP,2013-07-05 00:36:00,
2013-07-04 20:41:00,72.3,65.8,29.92,WSW,247,0.0,0.0,80,0.00,,,0.00,WUHU21623XXSP,2013-07-05 00:41:00,
2013-07-04 20:46:00,72.1,66.0,29.91,WSW,247,0.0,0.0,81,0.00,,,0.00,WUHU21623XXSP,2013-07-05 00:46:00,
2013-07-04 20:51:00,71.8,65.3,29.91,WSW,247,0.0,0.0,80,0.00,,,0.00,WUHU21623XXSP,2013-07-05 00:51:00,
2013-07-04 20:56:00,71.6,65.5,29.91,WSW,247,0.0,0.0,81,0.00,,,0.00,WUHU21623XXSP,2013-07-05 00:56:00,
2013-07-04 21:01:00,71.4,65.3,29.91,WSW,247,0.0,0.0,81,0.00,,,0.00,WUHU21623XXSP,2013-07-05 01:01:00,
2013-07-04 21:06:00,71.2,65.1,29.91,WSW,247,0.0,0.0,81,0.00,,,0.00,WUHU21623XXSP,2013-07-05 01:06:00,
2013-07-04 21:11:00,70.9,64.7,29.91,WSW,247,0.0,0.0,81,0.00,,,0.00,WUHU21623XXSP,2013-07-05 01:11:00,
2013-07-04 21:16:00,70.7,64.9,29.92,WSW,247,0.0,0.0,82,0.00,,,0.00,WUHU21623XXSP,2013-07-05 01:16:00,
2013-07-04 21:21:00,70.5,64.7,29.91,WSW,247,0.0,0.0,82,0.00,,,0.00,WUHU21623XXSP,2013-07-05 01:21:00,
2013-07-04 21:26:00,70.3,64.5,29.91,WSW,247,0.0,0.0,82,0.00,,,0.00,WUHU21623XXSP,2013-07-05 01:26:00,
2013-07-04 21:31:00,70.0,64.2,29.91,WSW,247,0.0,0.0,82,0.00,,,0.00,WUHU21623XXSP,2013-07-05 01:31:00,
2013-07-04 21:36:00,69.8,64.0,29.91,WSW,247,0.0,0.0,82,0.00,,,0.00,WUHU21623XXSP,2013-07-05 01:36:00,
2013-07-04 21:41:00,69.6,63.8,29.91,WSW,247,0.0,0.0,82,0.00,,,0.00,WUHU21623XXSP,2013-07-05 01:41:00,
2013-07-04 21:46:00,69.4,63.7,29.91,WSW,247,0.0,0.0,82,0.00,,,0.00,WUHU21623XXSP,2013-07-05 01:46:00,
2013-07-04 21:51:00,69.3,63.8,29.92,WSW,247,0.0,0.0,83,0.00,,,0.00,WUHU21623XXSP,2013-07-05 01:51:00,
2013-07-04 21:56:00,69.1,64.0,29.91,WSW,247,0.0,0.0,84,0.00,,,0.00,WUHU21623XXSP,2013-07-05 01:56:00,
2013-07-04 22:01:00,68.7,63.3,29.91,WSW,247,0.0,0.0,83,0.00,,,0.00,WUHU21623XXSP,2013-07-05 02:01:00,
2013-07-04 22:06:00,68.5,63.5,29.92,WSW,247,0.0,0.0,84,0.00,,,0.00,WUHU21623XXSP,2013-07-05 02:06:00,
2013-07-04 22:11:00,68.4,63.3,29.92,WSW,247,0.0,0.0,84,0.00,,,0.00,WUHU21623XXSP,2013-07-05 02:11:00,
2013-07-04 22:16:00,68.2,63.2,29.92,WSW,247,0.0,0.0,84,0.00,,,0.00,WUHU21623XXSP,2013-07-05 02:16:00,
2013-07-04 22:21:00,67.8,62.8,29.93,WSW,247,0.0,0.0,84,0.00,,,0.00,WUHU21623XXSP,2013-07-05 02:21:00,
2013-07-04 22:26:00,67.8,62.8,29.93,WSW,247,0.0,0.0,84,0.00,,,0.00,WUHU21623XXSP,2013-07-05 02:26:00,
2013-07-04 22:32:00,67.6,62.6,29.92,WSW,247,0.0,0.0,84,0.00,,,0.00,WUHU21623XXSP,2013-07-05 02:32:00,
2013-07-04 22:37:00,67.5,62.8,29.93,WSW,247,0.0,0.0,85,0.00,,,0.00,WUHU21623XXSP,2013-07-05 02:37:00,
2013-07-04 22:42:00,67.3,62.6,29.93,WSW,247,0.0,0.0,85,0.00,,,0.00,WUHU21623XXSP,2013-07-05 02:42:00,
2013-07-04 22:47:00,67.3,62.6,29.94,WSW,247,0.0,0.0,85,0.00,,,0.00,WUHU21623XXSP,2013-07-05 02:47:00,
2013-07-04 22:52:00,67.1,62.4,29.93,WSW,247,0.0,0.0,85,0.00,,,0.00,WUHU21623XXSP,2013-07-05 02:52:00,
2013-07-04 22:57:00,66.9,62.6,29.93,WSW,247,0.0,0.0,86,0.00,,,0.00,WUHU21623XXSP,2013-07-05 02:57:00,
2013-07-04 23:02:00,66.7,62.1,29.93,WSW,247,0.0,0.0,85,0.00,,,0.00,WUHU21623XXSP,2013-07-05 03:02:00,
2013-07-04 23:07:00,66.7,62.1,29.93,WSW,247,0.0,0.0,85,0.00,,,0.00,WUHU21623XXSP,2013-07-05 03:07:00,
2013-07-04 23:12:00,66.4,61.7,29.93,WSW,247,0.0,0.0,85,0.00,,,0.00,WUHU21623XXSP,2013-07-05 03:12:00,
2013-07-04 23:17:00,66.2,61.8,29.92,WSW,247,0.0,0.0,86,0.00,,,0.00,WUHU21623XXSP,2013-07-05 03:17:00,
2013-07-04 23:22:00,66.0,61.7,29.93,WSW,247,0.0,0.0,86,0.00,,,0.00,WUHU21623XXSP,2013-07-05 03:22:00,
2013-07-04 23:27:00,66.0,61.7,29.93,WSW,247,0.0,0.0,86,0.00,,,0.00,WUHU21623XXSP,2013-07-05 03:27:00,
2013-07-04 23:32:00,66.0,61.7,29.93,WSW,247,0.0,0.0,86,0.00,,,0.00,WUHU21623XXSP,2013-07-05 03:32:00,
2013-07-04 23:37:00,65.8,61.5,29.93,WSW,247,0.0,0.0,86,0.00,,,0.00,WUHU21623XXSP,2013-07-05 03:37:00,
2013-07-04 23:42:00,65.7,61.3,29.93,WSW,247,0.0,0.0,86,0.00,,,0.00,WUHU21623XXSP,2013-07-05 03:42:00,
2013-07-04 23:47:00,65.5,61.2,29.93,WSW,247,0.0,0.0,86,0.00,,,0.00,WUHU21623XXSP,2013-07-05 03:47:00,
2013-07-04 23:52:00,65.5,61.5,29.93,WSW,247,0.0,0.0,87,0.00,,,0.00,WUHU21623XXSP,2013-07-05 03:52:00,
2013-07-04 23:57:00,65.3,61.3,29.93,WSW,247,0.0,0.0,87,0.00,,,0.00,WUHU21623XXSP,2013-07-05 03:57:00,